Location: Middlebury
(44.0133°N, 73.1813°W)
Time: 11:19:07
(UTC-05:00)

ISS - Visible Passes

Search period start: 17 January 2020 00:00
Search period end: 27 January 2020 00:00
Orbit: 415 x 421 km, 51.6° (Epoch: 18 January)

Date Brightness Start Highest point End Pass type
(mag) Time Alt. Az. Time Alt. Az. Time Alt. Az.
18 Jan -1.1 18:36:31 10° S 18:36:54 12° SSE 18:36:54 12° SSE visible
19 Jan -0.8 19:23:46 10° SW 19:24:18 14° SW 19:24:18 14° SW visible
20 Jan -2.9 18:36:00 10° SSW 18:38:39 37° SSE 18:38:39 37° SSE visible
21 Jan -2.4 17:48:30 10° SSW 17:51:19 25° SE 17:52:55 17° E visible
21 Jan -1.1 19:24:37 10° WSW 19:25:52 20° W 19:25:52 20° W visible
22 Jan -3.8 18:36:31 10° WSW 18:39:53 77° NNW 18:40:03 74° N visible
23 Jan -3.7 17:48:32 10° SW 17:51:52 67° SE 17:54:10 19° ENE visible
23 Jan -1.0 19:25:52 10° W 19:27:06 18° WNW 19:27:06 18° WNW visible
24 Jan -2.8 18:37:32 10° W 18:40:43 37° NNW 18:41:09 36° N visible
25 Jan -3.2 17:49:17 10° WSW 17:52:35 52° NNW 17:55:08 16° NE visible
25 Jan -0.9 19:27:08 10° WNW 19:28:04 15° NW 19:28:04 15° NW visible
26 Jan -2.2 18:38:47 10° WNW 18:41:40 25° NNW 18:42:01 25° N visible
